TimeMST,TemperatureF,Dew PointF,Humidity,Sea Level PressureIn,VisibilityMPH,Wind Direction,Wind SpeedMPH,Gust SpeedMPH,PrecipitationIn,Events,Conditions,WindDirDegrees,DateUTC
12:53 AM,21.9,12.0,66,30.07,10.0,SSW,11.5,-,N/A,,Clear,200,2011-12-11 07:53:00
1:53 AM,21.9,12.0,66,30.05,10.0,SW,8.1,-,N/A,,Clear,230,2011-12-11 08:53:00
2:53 AM,23.0,12.0,63,30.02,10.0,SW,8.1,-,N/A,,Clear,220,2011-12-11 09:53:00
3:53 AM,21.9,12.0,66,30.01,10.0,SW,10.4,-,N/A,,Clear,220,2011-12-11 10:53:00
4:53 AM,21.9,10.9,63,30.00,10.0,SW,8.1,-,N/A,,Clear,220,2011-12-11 11:53:00
5:53 AM,19.0,10.0,68,30.03,10.0,SW,8.1,-,N/A,,Clear,230,2011-12-11 12:53:00
6:53 AM,21.9,10.0,60,30.01,10.0,WSW,9.2,-,N/A,,Clear,250,2011-12-11 13:53:00
7:53 AM,25.0,10.0,53,30.01,10.0,WSW,5.8,-,N/A,,Clear,240,2011-12-11 14:53:00
8:53 AM,26.1,12.0,55,30.00,10.0,SW,8.1,-,N/A,,Clear,230,2011-12-11 15:53:00
9:53 AM,30.0,12.9,49,29.99,10.0,SW,6.9,-,N/A,,Clear,230,2011-12-11 16:53:00
10:53 AM,36.0,16.0,44,29.95,10.0,WSW,9.2,-,N/A,,Clear,250,2011-12-11 17:53:00
11:53 AM,42.1,17.1,37,29.90,10.0,Calm,Calm,-,N/A,,Clear,0,2011-12-11 18:53:00
12:53 PM,41.0,19.0,41,29.88,10.0,Calm,Calm,-,N/A,,Partly Cloudy,0,2011-12-11 19:53:00
1:53 PM,39.0,21.0,49,29.88,10.0,Calm,Calm,-,N/A,,Partly Cloudy,0,2011-12-11 20:53:00
2:53 PM,39.9,18.0,41,29.87,10.0,SSE,4.6,-,N/A,,Partly Cloudy,160,2011-12-11 21:53:00
3:53 PM,34.0,19.9,56,29.90,10.0,SE,4.6,-,N/A,,Scattered Clouds,130,2011-12-11 22:53:00
4:53 PM,37.9,18.0,45,29.89,10.0,Calm,Calm,-,N/A,,Scattered Clouds,0,2011-12-11 23:53:00
5:53 PM,32.0,14.0,48,29.94,10.0,South,8.1,-,N/A,,Scattered Clouds,180,2011-12-12 00:53:00
6:53 PM,24.1,12.9,62,29.99,10.0,ESE,4.6,-,N/A,,Scattered Clouds,110,2011-12-12 01:53:00
7:53 PM,21.9,12.0,66,29.99,10.0,SE,5.8,-,N/A,,Scattered Clouds,130,2011-12-12 02:53:00
8:53 PM,24.1,10.9,57,29.99,10.0,SSE,8.1,-,N/A,,Scattered Clouds,160,2011-12-12 03:53:00
9:53 PM,28.9,12.0,49,29.95,10.0,SW,8.1,-,N/A,,Partly Cloudy,220,2011-12-12 04:53:00
10:53 PM,26.1,12.0,55,29.95,10.0,SSW,5.8,-,N/A,,Partly Cloudy,210,2011-12-12 05:53:00
11:53 PM,19.9,9.0,62,29.96,10.0,South,5.8,-,N/A,,Partly Cloudy,190,2011-12-12 06:53:00